Previsão horária em Abha

Hoje, 17 Abril, Sábado

Tempo Temperatura Precipitação Vento Pressão Humidade
00:00 +25°C° 0.3 mm 2 m/s 645 mmHg 39%
01:00 +24°C° 0 mm 2 m/s 644 mmHg 40%
02:00 +24°C° 0 mm 2 m/s 644 mmHg 41%
03:00 +24°C° 0 mm 2 m/s 643 mmHg 41%
04:00 +23°C° 0 mm 2 m/s 644 mmHg 42%
05:00 +23°C° 0 mm 2 m/s 644 mmHg 43%
06:00 +21°C° 0 mm 2 m/s 644 mmHg 43%
07:00 +24°C° 0 mm 2 m/s 645 mmHg 36%
08:00 +26°C° 0 mm 2 m/s 646 mmHg 30%
09:00 +28°C° 0 mm 2 m/s 646 mmHg 23%
10:00 +29°C° 0 mm 3 m/s 646 mmHg 21%
11:00 +30°C° 0 mm 4 m/s 646 mmHg 20%
12:00 +32°C° 0 mm 5 m/s 647 mmHg 18%
13:00 +32°C° 0 mm 5 m/s 646 mmHg 22%
14:00 +32°C° 0 mm 5 m/s 645 mmHg 25%
15:00 +30°C° 0 mm 6 m/s 645 mmHg 29%
16:00 +30°C° 0 mm 5 m/s 645 mmHg 34%
17:00 +29°C° 0 mm 4 m/s 645 mmHg 40%
18:00 +28°C° 0 mm 3 m/s 645 mmHg 45%
19:00 +27°C° 0.1 mm 2 m/s 645 mmHg 49%
20:00 +26°C° 0.1 mm 2 m/s 645 mmHg 53%
21:00 +26°C° 0.1 mm 1 m/s 645 mmHg 57%
22:00 +25°C° 0.1 mm 1 m/s 645 mmHg 55%
23:00 +25°C° 0.1 mm 1 m/s 645 mmHg 54%

Amanhã, 18 Abril, Domingo

Tempo Temperatura Precipitação Vento Pressão Humidade
00:00 +23°C° 0.1 mm 0 m/s 645 mmHg 53%
01:00 +25°C° 0.2 mm 1 m/s 645 mmHg 55%
02:00 +24°C° 0.2 mm 1 m/s 645 mmHg 57%
03:00 +23°C° 0.2 mm 1 m/s 645 mmHg 59%
04:00 +23°C° 0.1 mm 1 m/s 645 mmHg 57%
05:00 +23°C° 0.1 mm 1 m/s 645 mmHg 55%
06:00 +23°C° 0.1 mm 1 m/s 645 mmHg 53%
07:00 +25°C° 0 mm 1 m/s 646 mmHg 45%
08:00 +26°C° 0 mm 2 m/s 647 mmHg 37%
09:00 +27°C° 0 mm 2 m/s 647 mmHg 28%
10:00 +29°C° 0 mm 2 m/s 647 mmHg 24%
11:00 +30°C° 0 mm 3 m/s 647 mmHg 21%
12:00 +32°C° 0 mm 4 m/s 647 mmHg 17%
13:00 +32°C° 0 mm 4 m/s 647 mmHg 21%
14:00 +30°C° 0 mm 4 m/s 646 mmHg 26%
15:00 +30°C° 0 mm 4 m/s 646 mmHg 31%
16:00 +29°C° 0 mm 4 m/s 646 mmHg 34%
17:00 +28°C° 0 mm 3 m/s 646 mmHg 37%
18:00 +27°C° 0 mm 2 m/s 645 mmHg 40%
19:00 +27°C° 0 mm 2 m/s 646 mmHg 38%
20:00 +27°C° 0 mm 2 m/s 646 mmHg 36%
21:00 +27°C° 0 mm 2 m/s 646 mmHg 34%
22:00 +27°C° 0.1 mm 2 m/s 646 mmHg 33%
23:00 +26°C° 0.1 mm 2 m/s 646 mmHg 33%

Depois de amanhã, 19 Abril, Segunda-feira

Tempo Temperatura Precipitação Vento Pressão Humidade
00:00 +26°C° 0.1 mm 3 m/s 646 mmHg 32%
01:00 +25°C° 0.1 mm 2 m/s 646 mmHg 32%
02:00 +25°C° 0.1 mm 2 m/s 645 mmHg 31%
03:00 +24°C° 0.1 mm 2 m/s 645 mmHg 30%
04:00 +24°C° 0 mm 2 m/s 645 mmHg 30%
05:00 +23°C° 0 mm 2 m/s 645 mmHg 30%
06:00 +23°C° 0 mm 2 m/s 646 mmHg 30%
07:00 +24°C° 0 mm 2 m/s 646 mmHg 27%
08:00 +26°C° 0 mm 3 m/s 647 mmHg 24%
09:00 +27°C° 0 mm 3 m/s 648 mmHg 21%
10:00 +28°C° 0 mm 3 m/s 647 mmHg 20%
11:00 +29°C° 0 mm 3 m/s 647 mmHg 19%
12:00 +31°C° 0 mm 3 m/s 647 mmHg 18%
13:00 +30°C° 0 mm 3 m/s 647 mmHg 21%
14:00 +30°C° 0 mm 4 m/s 646 mmHg 23%
15:00 +30°C° 0 mm 4 m/s 645 mmHg 26%
16:00 +29°C° 0 mm 3 m/s 645 mmHg 29%
17:00 +29°C° 0 mm 3 m/s 645 mmHg 32%
18:00 +28°C° 0 mm 2 m/s 645 mmHg 35%
19:00 +27°C° 0 mm 2 m/s 645 mmHg 38%
20:00 +27°C° 0 mm 2 m/s 645 mmHg 40%
21:00 +26°C° 0 mm 2 m/s 645 mmHg 42%
22:00 +26°C° 0 mm 2 m/s 645 mmHg 41%
23:00 +26°C° 0 mm 2 m/s 645 mmHg 40%

20 Abril, Terça-feira

Tempo Temperatura Precipitação Vento Pressão Humidade
00:00 +26°C° 0 mm 2 m/s 645 mmHg 40%
01:00 +25°C° 0 mm 2 m/s 645 mmHg 40%
02:00 +25°C° 0 mm 2 m/s 645 mmHg 40%
03:00 +24°C° 0 mm 1 m/s 644 mmHg 40%
04:00 +24°C° 0 mm 1 m/s 644 mmHg 38%
05:00 +24°C° 0 mm 1 m/s 645 mmHg 36%
06:00 +23°C° 0 mm 1 m/s 645 mmHg 34%
07:00 +25°C° 0 mm 1 m/s 645 mmHg 32%
08:00 +26°C° 0 mm 2 m/s 646 mmHg 29%
09:00 +27°C° 0 mm 2 m/s 647 mmHg 26%
10:00 +29°C° 0 mm 2 m/s 647 mmHg 25%
11:00 +30°C° 0 mm 3 m/s 647 mmHg 23%
12:00 +31°C° 0 mm 3 m/s 647 mmHg 22%
13:00 +32°C° 0 mm 4 m/s 646 mmHg 22%
14:00 +32°C° 0 mm 4 m/s 645 mmHg 23%
15:00 +32°C° 0 mm 4 m/s 645 mmHg 23%
16:00 +30°C° 0 mm 4 m/s 645 mmHg 25%
17:00 +30°C° 0 mm 3 m/s 645 mmHg 27%
18:00 +29°C° 0 mm 2 m/s 644 mmHg 29%
19:00 +28°C° 0 mm 2 m/s 645 mmHg 31%
20:00 +27°C° 0 mm 1 m/s 645 mmHg 34%
21:00 +27°C° 0 mm 1 m/s 645 mmHg 36%
22:00 +26°C° 0 mm 1 m/s 645 mmHg 37%
23:00 +26°C° 0 mm 1 m/s 645 mmHg 38%

21 Abril, Quarta-feira

Tempo Temperatura Precipitação Vento Pressão Humidade
00:00 +26°C° 0 mm 1 m/s 645 mmHg 38%
01:00 +25°C° 0 mm 1 m/s 644 mmHg 39%
02:00 +25°C° 0 mm 1 m/s 644 mmHg 39%
03:00 +25°C° 0 mm 1 m/s 644 mmHg 40%
04:00 +25°C° 0 mm 1 m/s 644 mmHg 36%
05:00 +24°C° 0 mm 2 m/s 644 mmHg 31%
06:00 +24°C° 0 mm 2 m/s 644 mmHg 27%
07:00 +26°C° 0 mm 2 m/s 645 mmHg 23%
08:00 +28°C° 0 mm 2 m/s 646 mmHg 19%
09:00 +30°C° 0 mm 2 m/s 646 mmHg 15%
10:00 +30°C° 0 mm 3 m/s 646 mmHg 15%
11:00 +32°C° 0 mm 4 m/s 646 mmHg 16%
12:00 +33°C° 0 mm 4 m/s 646 mmHg 17%
13:00 +33°C° 0 mm 5 m/s 646 mmHg 17%
14:00 +33°C° 0 mm 5 m/s 645 mmHg 18%
15:00 +33°C° 0 mm 5 m/s 645 mmHg 18%
16:00 +32°C° 0 mm 4 m/s 645 mmHg 20%
17:00 +30°C° 0 mm 3 m/s 645 mmHg 22%
18:00 +29°C° 0 mm 2 m/s 645 mmHg 23%
19:00 +28°C° 0 mm 2 m/s 645 mmHg 26%
20:00 +28°C° 0 mm 1 m/s 645 mmHg 29%
21:00 +25°C° 0 mm 0 m/s 645 mmHg 32%
22:00 +27°C° 0 mm 1 m/s 645 mmHg 32%
23:00 +27°C° 0 mm 1 m/s 645 mmHg 32%

22 Abril, Quinta-feira

Tempo Temperatura Precipitação Vento Pressão Humidade
00:00 +26°C° 0 mm 1 m/s 645 mmHg 32%
01:00 +26°C° 0 mm 1 m/s 644 mmHg 32%
02:00 +26°C° 0 mm 1 m/s 644 mmHg 32%
03:00 +25°C° 0 mm 1 m/s 643 mmHg 31%
04:00 +25°C° 0 mm 1 m/s 644 mmHg 29%
05:00 +24°C° 0 mm 1 m/s 644 mmHg 27%
06:00 +24°C° 0 mm 1 m/s 644 mmHg 25%
07:00 +26°C° 0 mm 2 m/s 645 mmHg 22%
08:00 +28°C° 0 mm 2 m/s 646 mmHg 19%
09:00 +30°C° 0 mm 2 m/s 646 mmHg 16%
10:00 +30°C° 0 mm 3 m/s 646 mmHg 17%
11:00 +31°C° 0 mm 3 m/s 646 mmHg 18%
12:00 +33°C° 0 mm 4 m/s 646 mmHg 20%
13:00 +33°C° 0 mm 4 m/s 646 mmHg 20%
14:00 +33°C° 0 mm 4 m/s 645 mmHg 21%
15:00 +33°C° 0 mm 4 m/s 645 mmHg 22%
16:00 +32°C° 0 mm 4 m/s 644 mmHg 25%
17:00 +30°C° 0 mm 3 m/s 644 mmHg 27%
18:00 +29°C° 0 mm 3 m/s 644 mmHg 30%
19:00 +28°C° 0 mm 2 m/s 644 mmHg 32%
20:00 +27°C° 0 mm 2 m/s 644 mmHg 33%
21:00 +27°C° 0 mm 1 m/s 645 mmHg 35%
22:00 +26°C° 0 mm 1 m/s 644 mmHg 36%
23:00 +24°C° 0 mm 0 m/s 644 mmHg 36%
Mostrar mais